This is the latest recevied weather packets stored in our database for station/object DC4AT. If no packets are shown the sender has not sent any weather packets the latest 10 day(s).
| Time | Temp. | Humidity | Pressure | Rain* | Wind** | Luminosity | Snow |
|---|---|---|---|---|---|---|---|
| 1787568467 | 16.11° C | 69% | 1023.6 hPa | 0 mm | - | 417 W/m² | - |
| 1787567867 | 16.11° C | 68% | 1023.6 hPa | 0 mm | - | 373 W/m² | - |
| 1787567267 | 16.11° C | 68% | 1023.6 hPa | 0 mm | - | 320 W/m² | - |
| 1787566667 | 15.56° C | 69% | 1023.7 hPa | 0 mm | - | 276 W/m² | - |
| 1787566067 | 15.56° C | 70% | 1023.8 hPa | 0 mm | - | 176 W/m² | - |
| 1787565467 | 15.56° C | 75% | 1023.7 hPa | 0 mm | - | 151 W/m² | - |
| 1787564867 | 15° C | 76% | 1023.8 hPa | 0 mm | - | 169 W/m² | - |
| 1787564267 | 15.56° C | 77% | 1023.8 hPa | 0 mm | - | 202 W/m² | - |
| 1787563667 | 15° C | 78% | 1023.9 hPa | 0 mm | - | 243 W/m² | - |
| 1787563067 | 15° C | 80% | 1023.9 hPa | 0 mm | - | 345 W/m² | - |
| 1787562467 | 14.44° C | 81% | 1024 hPa | 0 mm | - | 258 W/m² | - |
| 1787561867 | 14.44° C | 81% | 1024.2 hPa | 0 mm | - | 313 W/m² | - |
| 1787561267 | 13.89° C | 83% | 1024.2 hPa | 0 mm | - | 227 W/m² | - |
| 1787560667 | 13.33° C | 83% | 1024.2 hPa | 0 mm | - | 197 W/m² | - |
| 1787560067 | 13.33° C | 85% | 1024.3 hPa | 0 mm | - | 188 W/m² | - |
| 1787559467 | 12.78° C | 85% | 1024.3 hPa | 0 mm | - | 186 W/m² | - |
| 1787558867 | 12.78° C | 85% | 1024.3 hPa | 0 mm | - | 183 W/m² | - |
| 1787558267 | 12.78° C | 85% | 1024.3 hPa | 0 mm | - | 162 W/m² | - |
| 1787557667 | 12.22° C | 86% | 1024.4 hPa | 0 mm | - | 153 W/m² | - |
| 1787557068 | 12.22° C | 86% | 1024.4 hPa | 0 mm | - | 163 W/m² | - |
| 1787556468 | 11.67° C | 86% | 1024.4 hPa | 0 mm | - | 174 W/m² | - |
| 1787555868 | 11.67° C | 85% | 1024.4 hPa | 0 mm | - | 172 W/m² | - |
| 1787555268 | 11.11° C | 85% | 1024.3 hPa | 0 mm | - | 148 W/m² | - |
| 1787554668 | 11.11° C | 84% | 1024.4 hPa | 0 mm | - | 162 W/m² | - |
| 1787554068 | 10.56° C | 83% | 1024.3 hPa | 0 mm | - | 294 W/m² | - |
* Rain latest hour (hover to see other rain measurements)
** Current wind speed in m/s (hover to see current wind gust speed)